ATLAS 5 CENTAUR DEB, 44845

Orbit data source: Space-Track

ATLAS 5 CENTAUR DEB, 44845 is space debris in HEO originally from a launch on Wed, 17 Sep 2014 UTC launched from the Air Force Eastern Test Range (AFETR). Debris objects in space refer to the collection of defunct objects orbiting the Earth. Examples of debris include non-operational satellites, rocket bodies, and fragments generated from explosions, collisions, or faulty payload assembly.

Loading next visibility...
Identifier
44845, 2014-055CD
Orbit
HEO
Country
Flag of USUS
Related business
Flag of USUnited Launch Alliance/Lockheed Martin (US)
Manufacturer
Unknown
Mission
Spacecraft
Bus & Motor
Unknown
Mass
Unknown
Launch date (UTC)
2014-09-17 (11 years ago)
Launch vehicle
Unknown
Launch site
Air Force Eastern Test Range (AFETR)
Object type
Payload
Rocket body
Debris
Shape & HBR
Unknown shape, 1.1 m
Radar Cross Section
Small (<0.1 m²)

Expand to show TLE details & history
Last TLE update: 1 day ago

TLE from 1 day ago
0 ATLAS 5 CENTAUR DEB
1 44845U 14055CD  25340.54488381 -.00000051  00000-0  00000-0 0  9992
2 44845  20.0934 146.7473 5042519 158.2523 234.5132  1.84919979 40864
Epoch: 2025-12-06T13:04Z
TLE epoch observation values (Epoch: 2025-12-06T13:04:37.961Z)
Latitude
-0.00001°
Longitude
-124.97736°
Altitude
32,917.156 km
Speed
2.464 km/s
True Right ascension
09h 47m 00s
True Declination
0° 00' 00"
Sunlit
Object was in daylight at epoch
Visualization orbit readout
Latitude
Unknown
Longitude
Unknown
Altitude
Unknown
Speed
Unknown
Apparent Right ascension
Unknown
Apparent Declination
Unknown
Sunlit
N/A
Visualization observer readout
Local Sidereal Time
12:29:01
Azimuth
Unknown
Elevation
Unknown
Doppler factor
Unknown
Orbital elements
Apogee altitude
35,801.018 km
Perigee altitude
7,522.617 km
Semi-major axis
28,039.955 km
Eccentricity
0.50425
Inclination
20.0934°
RAAN
146.7473°
Arg. of periapsis
158.2523°
True anomaly
201.80154°
Mean anomaly
234.5132°
Eccentric anomaly
217.08974°
Mean motion
0.46225 °/min
Orbital period
778.8 mins
BSTAR
0
Loading maneuver chart data...
Computing Atmospheric mass density...

Documentation

Showing up to 5 results
|